Starlink 30937

operational
NORAD ID: 58392 Int'l Des: 2023-178 Owner: SPXS Country: US Constellation: starlink
LEOCIRCULAR

Über Starlink 30937

Beschreibung wird geladen...

Live-Position

3D-Globus wird geladen...

Nächste Überflüge

Höhenverlauf

Altitude vs Time

uPlot chart will show altitude changes over time

Zweizeiliger Elementsatz

1 58392U 23178U 25256.25002315 .00473924 00000-0 38797-2 0 9991
2 58392 53.1460 96.5460 0012612 244.8229 163.8117 15.68472292 5919
Epoch: 13. Sept. 2025 • Age: 23 hours

Aktueller Status

Höhe 366.2 km
Geschwindigkeit 7.69 km/s
Subsatellitenpunkt -22.51°S, 11.41°E
Startdatum 20. Nov. 2023
Alter 1.8 years
Typ internet

Technische Details

Klassifizierung Payload
Masse 730.00 kg
Trockenmasse 700.00 kg
Gesamtmasse 730.00 kg
Länge 0.30 m
Durchmesser 4.10 m
Spannweite 29.00 m
Form Box + pan
Hersteller SPXS
Bus-Typ Starlink V2M
Phasenstatus In Orbit
Besitzer/Staat SPXS/US

Große Konstellationen

Loading constellations...